Location: Cahas Mountain Overlook
(37.0833°N, 80.1000°W)
Time: 18:48:22
(UTC-04:00)

SR - Pass Details

Date: 11 February 2026
Orbit: 572 x 849 km, 66.7° (Epoch: 12 March)

Event Time Altitude Azimuth Distance (km) Brightness Sun altitude
Rises 14:24:35 0° 344° (NNW) 3,063 ? 32.9°
Reaches altitude 10° 14:27:14 10° 358° (N) 2,193 ? 32.6°
Maximum altitude 14:31:22 25° 54° (NE) 1,475 ? 32.2°
Drops below altitude 10° 14:35:45 10° 109° (ESE) 2,332 ? 31.7°
Sets 14:38:38 0° 122° (ESE) 3,301 ? 31.3°
